Wind_Speed
16 15 15 14 13 13 12 11 10 10 9 9 8 8 8 7 7 7 7 7 7 7 8 8 8 8 9 9 9 10 10 11 12 13 13 13 13 14 15 15 15 15 16
18 17 16 15 15 14 13 12 12 11 11 11 10 10 10 9 9 8 8 9 9 9 9 9 9 10 10 10 11 11 12 12 13 14 14 14 14 15 15 16 16 17 17
20 19 18 17 16 16 15 14 14 13 13 12 12 12 11 11 10 10 10 10 10 10 10 11 11 11 11 12 12 12 13 13 14 15 15 15 15 16 16 17 17 18 18
23 21 21 20 19 18 17 16 16 16 15 15 14 13 13 12 12 12 11 11 12 12 12 12 12 12 13 13 13 14 14 14 15 15 16 16 16 17 17 18 18 18 19
25 24 23 22 21 20 19 19 18 18 17 16 16 15 14 14 13 13 13 13 13 13 13 13 13 14 14 14 15 15 15 15 16 16 17 17 17 18 18 19 19 20 21
27 27 26 25 24 22 21 21 20 19 19 18 17 16 16 15 15 15 15 15 15 15 15 15 15 15 16 16 16 16 16 17 17 17 18 18 19 20 20 20 21 21 22
30 29 28 27 26 25 23 23 22 21 20 20 19 18 17 17 17 16 16 16 16 16 16 16 17 17 17 17 17 18 18 18 18 19 20 20 20 21 22 22 22 22 22
33 32 31 30 28 27 26 25 24 23 22 21 20 20 19 19 18 18 18 17 17 17 17 18 18 18 18 18 19 19 19 19 20 20 21 21 22 22 23 23 23 23 23
34 33 33 32 31 30 28 27 25 25 24 23 22 22 21 20 20 20 19 19 19 19 19 19 19 19 19 19 20 20 20 20 21 22 22 23 23 23 24 24 25 25 25
35 35 34 33 32 31 30 28 27 26 26 25 24 23 23 22 22 22 22 21 21 21 21 21 20 21 21 21 21 22 22 22 23 23 24 24 25 25 26 26 26 27 27
36 36 36 35 34 33 32 30 29 28 28 27 26 25 25 24 24 24 23 23 23 22 22 22 22 22 22 22 23 23 24 24 24 25 25 26 27 27 27 27 27 28 28
38 37 37 36 35 34 33 32 31 30 30 29 28 27 27 26 26 25 25 24 24 24 24 23 23 24 23 24 24 25 25 25 25 26 27 27 28 28 29 29 29 29 30
38 38 37 37 36 35 34 34 32 32 31 30 30 29 28 28 27 27 26 26 26 25 25 25 25 25 25 25 25 26 26 26 27 27 28 29 29 29 30 30 31 31 31
40 39 38 38 37 36 35 34 34 33 33 32 31 31 30 29 29 29 28 28 27 27 27 27 27 26 26 26 26 26 27 28 28 28 29 29 30 30 31 32 32 32 32
41 40 39 38 38 37 36 35 35 34 34 33 32 32 31 31 31 30 30 29 29 29 29 29 28 28 28 28 28 27 28 28 29 30 30 30 30 31 32 32 33 33 33
41 41 40 39 39 38 37 36 36 35 35 34 33 33 33 32 32 31 31 30 30 30 30 29 29 29 29 29 29 29 29 29 30 30 30 30 31 32 32 33 33 33 34
41 41 41 40 39 38 37 37 37 37 36 35 34 34 34 33 33 32 31 31 31 31 31 30 30 31 31 31 31 30 30 30 30 31 31 32 32 32 33 33 33 34 34
41 41 41 41 40 39 38 38 38 38 36 36 35 35 34 34 33 33 32 32 32 32 32 32 32 32 32 32 31 31 31 31 31 32 32 32 32 32 33 33 33 34 34
41 41 42 42 41 40 39 38 38 38 37 36 36 36 35 35 34 34 33 33 33 33 33 33 32 32 32 32 32 32 32 32 32 32 32 32 32 32 33 33 34 35 35
41 41 41 41 41 41 40 39 39 39 38 37 37 37 36 35 35 34 34 34 33 34 33 33 33 33 33 32 32 32 33 33 32 32 32 33 33 33 33 34 35 35 36
41 41 41 41 41 41 41 40 40 39 39 39 38 37 37 36 35 35 35 35 34 34 33 33 33 33 33 33 33 33 33 33 33 33 34 34 34 34 34 35 36 37 38
41 41 40 41 41 41 40 40 40 39 39 39 38 38 37 37 36 36 36 35 35 34 34 33 33 33 34 33 33 33 33 33 33 34 34 34 34 35 36 37 38 39 40
40 40 40 41 40 40 40 40 40 39 39 39 39 38 38 37 36 37 36 35 34 34 34 33 33 33 33 33 33 33 34 34 34 33 34 35 35 36 37 38 39 40 41
41 40 40 40 40 40 41 41 40 39 39 39 39 39 39 38 37 36 36 36 35 34 33 33 33 33 33 33 34 34 35 35 35 35 34 35 35 36 38 39 40 41 43
41 41 40 40 40 40 40 41 41 39 38 39 39 39 38 37 37 37 36 36 36 35 34 33 33 33 33 33 34 35 35 36 36 36 35 35 36 37 39 40 41 43 44
41 40 40 40 39 39 39 40 41 40 38 38 39 38 38 37 37 37 37 37 36 36 35 34 34 34 34 34 34 34 35 36 36 37 36 36 37 38 39 41 42 44 45
Wind_Direction
226 226 225 225 225 224 225 227 230 235 242 246 250 253 256 258 261 268 272 276 279 282 284 285 287 289 292 295 296 298 301 301 301 302 303 303 304 304 305 303 303 303 303
228 228 228 227 226 228 230 233 234 237 243 249 253 256 257 258 262 268 272 275 279 281 282 284 286 287 289 293 295 296 298 299 301 303 304 304 304 303 304 303 302 302 302
231 230 230 229 229 231 232 236 239 242 245 249 253 257 258 259 261 265 270 273 276 279 281 283 283 285 287 289 291 293 295 297 298 301 303 303 303 303 303 304 303 303 302
232 231 231 231 232 234 236 238 241 245 248 251 253 256 257 259 262 265 269 272 274 277 279 282 283 283 285 288 290 292 293 295 297 299 301 302 303 303 302 302 303 303 303
232 233 233 234 234 236 238 240 243 245 248 252 253 254 257 260 263 266 269 272 274 276 277 280 282 284 286 287 289 291 292 294 296 298 299 301 301 302 302 302 302 303 302
233 234 236 236 236 237 239 241 243 245 248 250 252 255 257 259 263 266 269 272 274 276 277 279 281 283 284 286 287 289 291 293 295 297 298 299 299 300 300 301 301 301 301
235 236 237 238 238 238 239 241 242 244 247 248 251 254 256 258 262 265 268 271 274 276 277 279 280 281 283 285 286 288 290 291 293 296 297 298 298 299 299 300 300 300 301
237 237 238 238 239 240 240 240 242 243 245 247 249 253 255 258 262 266 268 270 273 274 276 279 280 280 281 283 286 287 288 289 291 294 295 296 297 297 297 298 298 299 300
237 237 238 239 239 240 241 241 242 243 245 246 249 252 255 258 261 265 267 270 271 273 276 278 278 278 279 282 285 287 287 288 290 291 293 294 295 296 295 295 296 297 298
236 237 238 238 239 240 240 240 241 243 245 246 249 252 255 258 261 264 266 269 271 273 275 276 276 277 278 280 283 286 286 287 289 290 292 293 294 294 294 294 295 296 297
236 236 237 238 239 239 239 240 241 243 245 246 248 251 254 257 260 264 266 269 271 273 274 275 275 275 277 280 283 284 285 286 288 289 291 292 293 293 293 293 294 295 296
235 235 236 237 238 239 239 240 241 243 244 246 247 250 253 257 260 263 266 269 271 273 273 274 276 275 277 280 283 284 285 286 287 288 290 291 292 291 292 292 293 294 295
235 235 236 237 238 238 239 240 240 242 244 245 247 250 253 256 259 262 265 267 270 272 272 275 276 277 277 280 283 284 285 286 287 288 289 291 291 291 291 291 292 292 293
234 234 235 236 238 238 239 239 239 241 243 245 247 250 253 256 258 261 264 267 269 271 272 274 275 278 278 280 282 283 284 285 287 288 289 290 291 291 292 292 292 292 293
233 233 234 236 237 237 238 239 239 241 243 246 247 250 253 256 259 262 264 267 268 270 271 273 274 276 279 280 281 282 283 285 286 288 289 289 290 291 291 291 292 292 292
233 233 234 235 236 238 238 239 240 241 244 246 248 250 253 256 259 262 264 266 267 269 271 273 274 276 279 280 281 282 284 286 287 287 288 289 290 290 291 291 292 292 293
233 233 233 234 235 236 237 238 239 241 243 246 248 251 253 256 259 261 263 265 267 269 270 272 273 275 277 279 281 282 283 285 286 286 287 288 289 290 291 292 292 293 293
234 233 233 234 234 235 237 238 240 242 244 246 248 251 254 256 258 259 261 264 266 269 270 272 273 275 277 278 279 281 282 284 285 286 286 287 288 290 291 292 292 293 294
233 234 234 234 235 236 237 237 239 241 243 245 247 250 253 255 257 259 261 263 266 268 270 272 273 275 276 278 279 280 282 283 285 285 286 287 288 290 291 292 293 294 295
234 234 234 234 235 236 237 237 239 241 243 246 247 250 253 255 257 259 262 264 267 268 270 272 272 274 276 277 278 280 281 282 284 285 286 287 289 290 291 292 294 295 296
232 233 234 235 235 236 237 237 238 240 243 245 247 249 252 255 257 259 262 264 266 267 269 271 272 273 275 277 278 279 280 281 284 286 287 288 289 290 292 293 294 295 296
233 233 234 235 235 236 237 237 238 241 243 245 247 250 252 255 257 259 262 263 264 267 268 271 272 273 274 276 277 278 279 281 284 285 287 288 289 291 292 293 295 296 297
233 233 233 235 236 236 237 237 238 241 244 245 248 250 252 254 257 259 260 262 264 266 268 270 271 272 273 275 277 278 279 280 282 284 286 287 289 290 292 293 295 296 297
233 234 234 235 236 237 237 238 239 240 243 245 247 249 251 252 255 257 259 260 263 265 267 269 271 273 273 275 277 278 279 281 282 283 285 286 288 291 293 294 295 297 298
233 234 234 235 235 236 238 239 240 241 244 245 246 248 250 252 253 256 258 261 263 265 266 268 271 274 275 276 277 279 280 282 283 284 284 286 289 291 293 295 296 297 298
232 233 234 234 235 236 238 240 241 243 244 245 247 248 251 253 254 256 258 262 262 264 267 268 271 273 275 277 278 281 282 283 284 285 286 287 289 292 294 296 297 298 299
Height
5862 5863 5865 5866 5867 5868 5870 5871 5872 5873 5874 5875 5875 5876 5877 5877 5878 5878 5878 5878 5878 5878 5878 5878 5877 5877 5877 5876 5876 5875 5874 5874 5873 5872 5871 5870 5869 5867 5866 5865 5864 5863 5862
5859 5861 5862 5864 5865 5867 5868 5869 5870 5872 5872 5873 5874 5875 5875 5876 5876 5877 5877 5877 5877 5877 5876 5876 5876 5875 5875 5875 5874 5873 5873 5872 5871 5870 5869 5868 5866 5865 5864 5863 5862 5860 5859
5856 5858 5860 5861 5863 5864 5866 5867 5868 5870 5870 5871 5872 5873 5873 5874 5874 5875 5875 5875 5875 5875 5875 5874 5874 5874 5873 5873 5872 5872 5871 5870 5869 5868 5867 5865 5864 5863 5862 5861 5859 5858 5857
5853 5855 5856 5858 5860 5862 5863 5865 5866 5867 5868 5869 5870 5871 5871 5872 5872 5873 5873 5873 5873 5873 5873 5872 5872 5872 5871 5871 5870 5869 5868 5867 5866 5865 5864 5863 5862 5861 5859 5858 5857 5855 5854
5848 5850 5852 5855 5857 5858 5860 5862 5863 5864 5865 5866 5868 5868 5869 5870 5870 5871 5871 5871 5871 5871 5870 5870 5869 5869 5869 5868 5868 5867 5866 5865 5864 5863 5862 5861 5859 5858 5857 5855 5854 5852 5851
5843 5846 5848 5850 5853 5855 5857 5858 5860 5861 5862 5864 5865 5866 5867 5867 5868 5868 5868 5868 5868 5868 5868 5867 5867 5867 5866 5866 5865 5864 5863 5862 5861 5860 5859 5858 5856 5855 5853 5852 5850 5849 5847
5838 5841 5843 5846 5848 5850 5853 5854 5856 5858 5859 5860 5862 5863 5864 5864 5865 5865 5865 5865 5865 5865 5865 5864 5864 5864 5863 5862 5862 5861 5860 5859 5858 5857 5856 5855 5853 5852 5850 5848 5847 5845 5843
5832 5835 5838 5840 5843 5846 5848 5850 5852 5854 5855 5857 5858 5859 5860 5861 5861 5862 5862 5862 5862 5862 5862 5861 5861 5860 5860 5859 5858 5858 5857 5856 5855 5854 5852 5851 5849 5848 5846 5845 5843 5841 5839
5825 5829 5832 5834 5837 5840 5843 5845 5847 5849 5851 5852 5854 5855 5856 5857 5858 5858 5858 5858 5858 5858 5858 5858 5857 5857 5856 5855 5855 5854 5853 5852 5851 5850 5848 5847 5845 5844 5842 5841 5839 5837 5835
5819 5822 5825 5828 5831 5834 5837 5840 5842 5844 5846 5848 5849 5851 5852 5853 5854 5854 5854 5854 5854 5854 5854 5854 5853 5853 5852 5851 5851 5850 5849 5848 5847 5845 5844 5843 5841 5839 5838 5836 5834 5832 5830
5812 5815 5818 5822 5825 5828 5831 5834 5837 5839 5841 5843 5844 5846 5847 5848 5849 5850 5850 5850 5850 5850 5849 5849 5849 5848 5848 5847 5846 5845 5844 5843 5842 5841 5839 5838 5836 5835 5833 5831 5829 5827 5825
5805 5808 5812 5815 5818 5822 5825 5828 5831 5833 5835 5837 5839 5841 5842 5843 5844 5845 5845 5846 5846 5845 5845 5844 5844 5843 5843 5842 5841 5841 5840 5838 5837 5836 5834 5833 5831 5829 5827 5825 5824 5822 5820
5797 5801 5804 5808 5811 5815 5818 5821 5824 5827 5829 5831 5833 5835 5837 5838 5839 5839 5840 5840 5840 5840 5840 5840 5839 5839 5838 5837 5836 5835 5834 5833 5832 5830 5829 5827 5825 5824 5822 5820 5818 5816 5814
5789 5793 5797 5800 5804 5807 5811 5814 5817 5820 5823 5825 5827 5829 5831 5832 5833 5834 5835 5835 5835 5835 5835 5835 5834 5834 5833 5832 5831 5830 5829 5828 5826 5825 5823 5821 5820 5818 5816 5814 5812 5810 5807
5782 5785 5789 5793 5796 5800 5804 5807 5810 5813 5816 5819 5821 5823 5825 5826 5827 5828 5829 5829 5829 5829 5829 5829 5829 5828 5828 5827 5826 5824 5823 5822 5820 5819 5817 5815 5814 5811 5809 5807 5805 5803 5801
5774 5778 5781 5785 5789 5793 5797 5800 5803 5806 5809 5812 5814 5816 5818 5820 5821 5822 5823 5823 5823 5823 5823 5823 5823 5822 5822 5821 5820 5818 5817 5816 5814 5813 5811 5809 5807 5805 5803 5801 5798 5796 5794
5766 5770 5774 5778 5782 5785 5789 5792 5796 5799 5802 5805 5807 5810 5811 5813 5814 5815 5816 5817 5817 5817 5817 5817 5816 5816 5815 5814 5813 5812 5811 5810 5808 5806 5805 5803 5801 5799 5796 5794 5792 5789 5787
5758 5762 5766 5770 5774 5778 5781 5785 5788 5791 5794 5797 5800 5802 5804 5806 5807 5808 5809 5810 5810 5811 5811 5810 5810 5809 5809 5808 5807 5806 5804 5803 5801 5800 5798 5796 5794 5792 5790 5787 5785 5782 5779
5749 5754 5758 5762 5766 5769 5773 5777 5780 5784 5787 5790 5793 5795 5797 5799 5800 5801 5802 5803 5803 5803 5804 5804 5803 5803 5802 5801 5800 5799 5798 5796 5795 5793 5791 5789 5787 5785 5783 5780 5778 5775 5772
5741 5745 5749 5753 5757 5761 5765 5769 5772 5776 5779 5782 5785 5788 5790 5791 5793 5794 5795 5795 5796 5796 5796 5796 5796 5796 5795 5794 5793 5792 5791 5789 5788 5786 5784 5782 5780 5778 5776 5773 5770 5767 5764
5732 5737 5741 5745 5749 5753 5757 5761 5765 5768 5772 5775 5777 5780 5782 5784 5785 5786 5787 5788 5788 5789 5789 5789 5788 5788 5787 5787 5786 5785 5784 5782 5780 5779 5777 5775 5773 5771 5768 5765 5763 5759 5756
5724 5728 5733 5737 5741 5744 5748 5752 5757 5760 5763 5766 5769 5772 5774 5776 5778 5779 5779 5780 5781 5781 5781 5781 5781 5781 5780 5779 5779 5778 5777 5776 5774 5772 5770 5767 5765 5763 5760 5757 5754 5751 5747
5716 5721 5725 5729 5732 5736 5740 5744 5748 5751 5755 5758 5761 5763 5766 5768 5769 5771 5772 5772 5773 5773 5773 5773 5773 5773 5772 5772 5771 5770 5769 5768 5767 5765 5763 5760 5758 5755 5752 5749 5746 5742 5738
5708 5712 5716 5720 5724 5728 5732 5736 5739 5743 5746 5749 5752 5755 5757 5759 5760 5762 5763 5764 5765 5765 5766 5766 5766 5765 5765 5764 5763 5762 5761 5760 5759 5758 5756 5753 5750 5747 5744 5740 5737 5733 5729
5699 5704 5708 5712 5716 5720 5724 5727 5731 5734 5738 5741 5743 5746 5748 5750 5752 5754 5755 5756 5757 5757 5758 5758 5758 5757 5757 5756 5756 5755 5753 5752 5750 5749 5748 5745 5742 5739 5735 5731 5727 5723 5719
5691 5696 5700 5704 5709 5712 5716 5719 5723 5726 5729 5732 5735 5738 5740 5742 5744 5746 5747 5748 5748 5749 5750 5750 5750 5750 5749 5749 5748 5747 5745 5744 5742 5740 5739 5737 5734 5731 5727 5722 5717 5713 5709